Regional Weather Roundup
Issued by NWS Kansas City/Pleasant Hill, MO

Home | Current Version | Previous Version | Text Only | Print | Product List | Glossary On
Versions: 1 2 3 4 5 6 7 8 9 10 11 12 13 14 15 16 17 18 19 20 21 22 23 24 25 26 27 28 29 30 31 32 33 34 35 36 37 38 39 40 41 42 43 44 45 46 47 48 49 50
000
ASUS43 KEAX 161210
RWREAX

WEATHER ROUNDUP FOR EASTERN KANSAS AND NORTHWEST MISSOURI
NATIONAL WEATHER SERVICE KANSAS CITY/PLEASANT HILL MO
600 AM CST TUE JAN 16 2018

KSZ040-057-103>105-MOZ028-029-037-043-161300-
...KANSAS CITY METROPOLITAN AREA...

CITY           SKY/WX    TMP DP  RH WIND       PRES   REMARKS
K.C. INTL      CLEAR     -5 -11  75 NW7       30.70S WCI -19
6HR MIN TEMP:  -5; 6HR MAX TEMP:  -1;

K.C. DOWNTOWN  CLEAR     -1 -10  65 NW9       30.74S WCI -16
6HR MIN TEMP:  -1; 6HR MAX TEMP:   2;

LEES SUMMIT    CLEAR     -3 -10  72 NW14      30.70R WCI -22
6HR MIN TEMP:  -3; 6HR MAX TEMP:   1;

OLATHE - IXD   CLEAR     -4  -9  79 NW9       30.72R WCI -20
6HR MIN TEMP:  -4; 6HR MAX TEMP:   0;

OLATHE - OJC   CLEAR     -4 -10  75 NW10      30.70R WCI -21
6HR MIN TEMP:  -4; 6HR MAX TEMP:   0;

LAWRENCE       CLEAR     -5 -11  75 W8        30.75R WCI -20

$$

MOZ001>008-011>017-020>025-030>033-038>040-044>046-053-054-161300-
...NORTHERN AND CENTRAL MISSOURI...

CITY           SKY/WX    TMP DP  RH WIND       PRES   REMARKS
ST. JOSEPH       N/A    N/A N/A N/A MISG      30.74S
MOSBY            N/A      0  -9  65 NW10      30.73R WCI -17
WARRENSBURG    CLEAR     -4  -9  77 W7        30.72R WCI -18
WHITEMAN AFB   CLEAR     -4 -12  66 NW9       30.65R WCI -20
6HR MIN TEMP:  -4; 6HR MAX TEMP:   0;

CLINTON        MOCLDY    -2 -11  65 MISG      30.72R
SEDALIA        PTCLDY    -3  -8  79 NW9       30.68R WCI -19
6HR MIN TEMP:  -3; 6HR MAX TEMP:   2;

WARSAW         NOT AVBL
CHILLICOTHE      N/A     -4 -12  68 NW7       30.70R WCI -18
6HR MIN TEMP:  -4; 6HR MAX TEMP:  -1;

KIRKSVILLE     CLEAR     -6 -11  79 NW10      30.61S WCI -24
6HR MIN TEMP:  -6; 6HR MAX TEMP:  -3;


$$

MOZ041-047>049-056>058-063>065-088>090-097-161300-
...EASTERN AND SOUTHERN MISSOURI...

CITY           SKY/WX    TMP DP  RH WIND       PRES   REMARKS
ST. LOUIS INTL PTCLDY     0  -8  69 W14       30.64R WCI -19
6HR MIN TEMP:   0; 6HR MAX TEMP:   5; 6HR PCP: TRACE;

SPIRIT OF STL  CLEAR      0  -8  69 W8        30.66R WCI -14
COLUMBIA       PTCLDY    -4 -10  75 W8        30.65R WCI -19
JEFFERSON CITY PTCLDY    -2 -10  69 W7        30.71R WCI -15
ROLLA          PTCLDY    -4  -9  79 NW9       30.62R WCI -20
OSAGE BEACH    MOCLDY    -3  -9  75 NW6       30.69R WCI -15
SPRINGFIELD    CLOUDY    -3  -9  75 NW5       30.65R WCI -13
BRANSON        CLOUDY     0  -8  71 NW9       30.67R WCI -16
JOPLIN         CLOUDY    -3  -9  75 NW7       30.74R WCI -16
WEST PLAINS    CLOUDY    -1  -9  68 NW7       30.63R WCI -14

$$

IAZ060-094-KSZ022-034>040-054-083-096-NEZ052-066-093-161300-
...KANSAS...SOUTHEAST NEBRASKA AND IOWA...

CITY           SKY/WX    TMP DP  RH WIND       PRES   REMARKS
TOPEKA         CLEAR     -2  -8  76 W10       30.76S WCI -19
6HR MIN TEMP:  -2; 6HR MAX TEMP:   2;

MANHATTAN      MOCLDY    -1  -8  72 W3        30.77S
EMPORIA        CLEAR      0  -8  69 NW16G22   30.73S WCI -20
CHANUTE        CLEAR      1  -8  66 N9        30.75R WCI -14
WICHITA        CLEAR      4  -4  69 N16       30.74F WCI -15
OMAHA          FLURRIES  -2  -9  72 NW21      30.74R WCI -25
LINCOLN        MOCLDY    -1  -9  68 N14       30.76R WCI -20
FALLS CITY     MOCLDY    -3  -9  75 NW10      30.73S WCI -20
LAMONI         CLOUDY    -3 -10  72 NW14      30.63R WCI -22
DES MOINES     LGT SNOW  -4 -10  75 NW13      30.65S BLWGSNOWWCI -23

$$




USA.gov is the U.S. government's official web portal to all federal, state and local government web resources and services.